• In United Kingdom
  • List of Countries
  • For 7 days
  • Water Temperature
  • Satellite Maps
  • Weather Map
  • Weather Widgets
  • user-avatar
    Login

    Hourly Weather Newcastle

    Today, 19 October, Thursday

    Time Temperature Precipitation Wind Pressure Humidity
    00:00 +17°C° 0 mm 5 mps 769 mmHg 85%
    01:00 +16°C° 0 mm 5 mps 769 mmHg 86%
    02:00 +16°C° 0 mm 5 mps 768 mmHg 87%
    03:00 +16°C° 0 mm 5 mps 768 mmHg 89%
    04:00 +14°C° 0 mm 4 mps 768 mmHg 94%
    05:00 +17°C° 0 mm 4 mps 768 mmHg 87%
    06:00 +18°C° 0 mm 4 mps 768 mmHg 81%
    07:00 +19°C° 0 mm 4 mps 768 mmHg 75%
    08:00 +22°C° 0 mm 4 mps 768 mmHg 65%
    09:00 +25°C° 0 mm 4 mps 768 mmHg 55%
    10:00 +29°C° 0 mm 3 mps 767 mmHg 42%
    11:00 +30°C° 0 mm 4 mps 767 mmHg 38%
    12:00 +32°C° 0 mm 4 mps 766 mmHg 35%
    13:00 +34°C° 0 mm 5 mps 765 mmHg 31%
    14:00 +33°C° 0 mm 5 mps 765 mmHg 33%
    15:00 +32°C° 0 mm 6 mps 764 mmHg 36%
    16:00 +32°C° 0 mm 6 mps 764 mmHg 38%
    17:00 +29°C° 0 mm 6 mps 764 mmHg 48%
    18:00 +26°C° 0 mm 6 mps 764 mmHg 59%
    19:00 +23°C° 0 mm 7 mps 764 mmHg 69%
    20:00 +22°C° 0 mm 6 mps 764 mmHg 73%
    21:00 +21°C° 0 mm 5 mps 764 mmHg 78%
    22:00 +20°C° 0 mm 5 mps 764 mmHg 82%
    23:00 +20°C° 0 mm 4 mps 764 mmHg 82%

    Tomorrow, 20 October, Friday

    Time Temperature Precipitation Wind Pressure Humidity
    00:00 +20°C° 0 mm 4 mps 764 mmHg 81%
    01:00 +19°C° 0 mm 3 mps 763 mmHg 81%
    02:00 +19°C° 0.6 mm 3 mps 763 mmHg 83%
    03:00 +19°C° 0.6 mm 3 mps 763 mmHg 85%
    04:00 +19°C° 0.6 mm 2 mps 763 mmHg 86%
    05:00 +19°C° 2 mm 2 mps 764 mmHg 89%
    06:00 +19°C° 2 mm 2 mps 764 mmHg 92%
    07:00 +20°C° 2 mm 1 mps 764 mmHg 95%
    08:00 +20°C° 2.3 mm 1 mps 764 mmHg 96%
    09:00 +19°C° 2.3 mm 2 mps 764 mmHg 96%
    10:00 +19°C° 2.3 mm 2 mps 764 mmHg 96%
    11:00 +19°C° 1.9 mm 3 mps 764 mmHg 96%
    12:00 +19°C° 1.9 mm 4 mps 764 mmHg 96%
    13:00 +19°C° 1.9 mm 5 mps 764 mmHg 96%
    14:00 +19°C° 0.9 mm 5 mps 764 mmHg 96%
    15:00 +17°C° 0.9 mm 6 mps 764 mmHg 96%
    16:00 +16°C° 0.9 mm 7 mps 764 mmHg 96%
    17:00 +16°C° 0.3 mm 7 mps 764 mmHg 96%
    18:00 +16°C° 0.3 mm 6 mps 765 mmHg 96%
    19:00 +16°C° 0.3 mm 6 mps 765 mmHg 96%
    20:00 +16°C° 0.3 mm 6 mps 765 mmHg 96%
    21:00 +15°C° 0.3 mm 6 mps 766 mmHg 96%
    22:00 +15°C° 0.3 mm 6 mps 766 mmHg 96%
    23:00 +15°C° 0.2 mm 6 mps 766 mmHg 94%

    Day after tomorrow, 21 October, Saturday

    Time Temperature Precipitation Wind Pressure Humidity
    00:00 +15°C° 0.2 mm 6 mps 765 mmHg 93%
    01:00 +14°C° 0.2 mm 5 mps 765 mmHg 92%
    02:00 +14°C° 0 mm 5 mps 765 mmHg 90%
    03:00 +14°C° 0 mm 5 mps 765 mmHg 89%
    04:00 +14°C° 0 mm 5 mps 765 mmHg 88%
    05:00 +14°C° 0 mm 5 mps 765 mmHg 86%
    06:00 +14°C° 0 mm 5 mps 765 mmHg 83%
    07:00 +15°C° 0 mm 5 mps 765 mmHg 81%
    08:00 +15°C° 0 mm 5 mps 765 mmHg 78%
    09:00 +15°C° 0 mm 4 mps 765 mmHg 74%
    10:00 +17°C° 0 mm 4 mps 765 mmHg 71%
    11:00 +18°C° 0 mm 4 mps 764 mmHg 67%
    12:00 +18°C° 0 mm 4 mps 764 mmHg 63%
    13:00 +19°C° 0 mm 4 mps 763 mmHg 59%
    14:00 +19°C° 0 mm 4 mps 763 mmHg 59%
    15:00 +19°C° 0 mm 3 mps 762 mmHg 60%
    16:00 +19°C° 0 mm 3 mps 762 mmHg 60%
    17:00 +17°C° 0 mm 3 mps 762 mmHg 69%
    18:00 +15°C° 0 mm 2 mps 762 mmHg 77%
    19:00 +14°C° 0 mm 2 mps 762 mmHg 86%
    20:00 +13°C° 0 mm 1 mps 762 mmHg 88%
    21:00 +12°C° 0 mm 1 mps 763 mmHg 90%
    22:00 +12°C° 0 mm 1 mps 763 mmHg 93%
    23:00 +12°C° 0 mm 1 mps 762 mmHg 93%

    22 October, Sunday

    Time Temperature Precipitation Wind Pressure Humidity
    00:00 +11°C° 0 mm 1 mps 762 mmHg 94%
    01:00 +11°C° 0 mm 1 mps 761 mmHg 95%
    02:00 +11°C° 0 mm 1 mps 761 mmHg 95%
    03:00 +10°C° 0 mm 2 mps 761 mmHg 95%
    04:00 +9°C° 0 mm 2 mps 760 mmHg 94%
    05:00 +12°C° 0 mm 2 mps 760 mmHg 86%
    06:00 +14°C° 0 mm 2 mps 760 mmHg 78%
    07:00 +15°C° 0 mm 2 mps 760 mmHg 70%
    08:00 +18°C° 0 mm 2 mps 760 mmHg 60%
    09:00 +21°C° 0 mm 2 mps 759 mmHg 51%
    10:00 +24°C° 0 mm 1 mps 759 mmHg 41%
    11:00 +26°C° 0 mm 2 mps 758 mmHg 38%
    12:00 +27°C° 0 mm 2 mps 758 mmHg 36%
    13:00 +28°C° 0 mm 3 mps 757 mmHg 33%
    14:00 +27°C° 0 mm 3 mps 756 mmHg 37%
    15:00 +26°C° 0 mm 4 mps 756 mmHg 42%
    16:00 +25°C° 0 mm 4 mps 755 mmHg 46%
    17:00 +22°C° 0 mm 4 mps 756 mmHg 55%
    18:00 +20°C° 0 mm 4 mps 757 mmHg 64%
    19:00 +18°C° 0 mm 4 mps 757 mmHg 73%
    20:00 +17°C° 0 mm 3 mps 758 mmHg 78%
    21:00 +16°C° 0 mm 3 mps 758 mmHg 83%
    22:00 +16°C° 0 mm 3 mps 759 mmHg 88%
    23:00 +14°C° 0.1 mm 3 mps 759 mmHg 90%

    23 October, Monday

    Time Temperature Precipitation Wind Pressure Humidity
    00:00 +14°C° 0.1 mm 3 mps 759 mmHg 92%
    01:00 +13°C° 0.1 mm 3 mps 759 mmHg 94%
    02:00 +13°C° 0 mm 3 mps 759 mmHg 94%
    03:00 +13°C° 0 mm 3 mps 759 mmHg 94%
    04:00 +14°C° 0 mm 2 mps 759 mmHg 94%
    05:00 +14°C° 0.1 mm 3 mps 759 mmHg 88%
    06:00 +17°C° 0.1 mm 3 mps 760 mmHg 82%
    07:00 +18°C° 0.1 mm 3 mps 760 mmHg 76%
    08:00 +19°C° 0.2 mm 3 mps 761 mmHg 74%
    09:00 +20°C° 0.2 mm 4 mps 761 mmHg 72%
    10:00 +20°C° 0.2 mm 4 mps 761 mmHg 70%
    11:00 +21°C° 0.1 mm 4 mps 761 mmHg 67%
    12:00 +21°C° 0.1 mm 4 mps 761 mmHg 63%
    13:00 +22°C° 0.1 mm 4 mps 760 mmHg 60%
    14:00 +22°C° 0 mm 4 mps 760 mmHg 60%
    15:00 +21°C° 0 mm 4 mps 760 mmHg 60%
    16:00 +21°C° 0 mm 3 mps 760 mmHg 60%
    17:00 +19°C° 0 mm 3 mps 761 mmHg 69%
    18:00 +17°C° 0 mm 2 mps 761 mmHg 77%
    19:00 +15°C° 0 mm 2 mps 762 mmHg 85%
    20:00 +15°C° 0 mm 2 mps 762 mmHg 88%
    21:00 +15°C° 0 mm 2 mps 762 mmHg 90%
    22:00 +14°C° 0 mm 2 mps 762 mmHg 93%
    23:00 +14°C° 0 mm 2 mps 762 mmHg 94%

    24 October, Tuesday

    Time Temperature Precipitation Wind Pressure Humidity
    00:00 +14°C° 0 mm 2 mps 762 mmHg 95%
    01:00 +13°C° 0 mm 2 mps 762 mmHg 96%
    02:00 +13°C° 0 mm 2 mps 762 mmHg 96%
    03:00 +13°C° 0 mm 2 mps 762 mmHg 96%
    04:00 +13°C° 0 mm 2 mps 761 mmHg 97%
    05:00 +15°C° 0 mm 2 mps 762 mmHg 90%
    06:00 +16°C° 0 mm 2 mps 762 mmHg 83%
    07:00 +18°C° 0 mm 2 mps 762 mmHg 77%
    08:00 +21°C° 0 mm 2 mps 762 mmHg 67%
    09:00 +24°C° 0 mm 3 mps 762 mmHg 57%
    10:00 +27°C° 0 mm 3 mps 761 mmHg 47%
    11:00 +27°C° 0.2 mm 3 mps 761 mmHg 47%
    12:00 +28°C° 0.2 mm 4 mps 760 mmHg 47%
    13:00 +28°C° 0.2 mm 4 mps 760 mmHg 47%
    14:00 +26°C° 0.5 mm 4 mps 760 mmHg 56%
    15:00 +23°C° 0.5 mm 4 mps 759 mmHg 66%
    16:00 +21°C° 0.5 mm 4 mps 759 mmHg 75%
    17:00 +21°C° 0 mm 4 mps 759 mmHg 76%
    18:00 +20°C° 0 mm 4 mps 760 mmHg 76%
    19:00 +20°C° 0 mm 4 mps 760 mmHg 77%
    20:00 +19°C° 0 mm 4 mps 760 mmHg 75%
    21:00 +19°C° 0 mm 4 mps 760 mmHg 73%
    22:00 +18°C° 0 mm 3 mps 760 mmHg 72%
    23:00 +18°C° 0 mm 3 mps 760 mmHg 71%
    Show more